Terminal Aerodrome Forecast
Issued by NWS

Home | Current Version | Previous Version | Text Only | Print | Product List | Glossary On
Versions: 1 2 3 4 5 6 7 8 9 10 11 12 13 14 15 16 17 18 19 20 21 22 23 24 25 26 27 28 29 30
000
FTUS45 KCYS 172300
TAFLAR
TAF
KLAR 172332Z 1800/1824 35012G18KT P6SM SCT100
     FM180200 18006KT P6SM FEW200
     FM181700 21010KT P6SM SKC=

USA.gov is the U.S. government's official web portal to all federal, state and local government web resources and services.